• In Denmark
  • List of Countries
  • For 7 days
  • Water Temperature
  • Satellite Maps
  • Weather Map
  • Weather Widgets
  • user-avatar
    Login

    Hourly Weather Sydney

    Today, 21 September, Friday

    Time Temperature Precipitation Wind Pressure Humidity
    00:00 +9°C° 0 mm 2 mps 768 mmHg 71%
    01:00 +9°C° 0 mm 2 mps 768 mmHg 72%
    02:00 +8°C° 0 mm 2 mps 768 mmHg 73%
    03:00 +8°C° 0 mm 2 mps 768 mmHg 74%
    04:00 +8°C° 0 mm 2 mps 768 mmHg 75%
    05:00 +8°C° 0 mm 2 mps 768 mmHg 72%
    06:00 +9°C° 0 mm 2 mps 769 mmHg 68%
    07:00 +10°C° 0 mm 2 mps 769 mmHg 65%
    08:00 +14°C° 0 mm 2 mps 769 mmHg 54%
    09:00 +19°C° 0 mm 1 mps 769 mmHg 44%
    10:00 +22°C° 0 mm 1 mps 769 mmHg 34%
    11:00 +23°C° 0 mm 1 mps 769 mmHg 31%
    12:00 +24°C° 0 mm 2 mps 769 mmHg 28%
    13:00 +25°C° 0 mm 2 mps 768 mmHg 25%
    14:00 +24°C° 0 mm 3 mps 768 mmHg 28%
    15:00 +24°C° 0 mm 3 mps 768 mmHg 30%
    16:00 +21°C° 0 mm 4 mps 768 mmHg 35%
    17:00 +19°C° 0 mm 3 mps 768 mmHg 44%
    18:00 +17°C° 0 mm 3 mps 768 mmHg 54%
    19:00 +14°C° 0 mm 3 mps 769 mmHg 64%
    20:00 +13°C° 0 mm 3 mps 769 mmHg 68%
    21:00 +13°C° 0 mm 2 mps 770 mmHg 72%
    22:00 +12°C° 0 mm 2 mps 770 mmHg 79%
    23:00 +12°C° 0 mm 2 mps 770 mmHg 80%

    Tomorrow, 22 September, Saturday

    Time Temperature Precipitation Wind Pressure Humidity
    00:00 +12°C° 0 mm 2 mps 770 mmHg 82%
    01:00 +10°C° 0 mm 2 mps 770 mmHg 84%
    02:00 +10°C° 0 mm 2 mps 770 mmHg 84%
    03:00 +10°C° 0 mm 2 mps 770 mmHg 85%
    04:00 +9°C° 0 mm 2 mps 769 mmHg 85%
    05:00 +10°C° 0 mm 2 mps 770 mmHg 80%
    06:00 +12°C° 0 mm 2 mps 770 mmHg 76%
    07:00 +13°C° 0 mm 2 mps 770 mmHg 71%
    08:00 +16°C° 0 mm 2 mps 770 mmHg 60%
    09:00 +19°C° 0 mm 2 mps 769 mmHg 49%
    10:00 +22°C° 0 mm 3 mps 769 mmHg 38%
    11:00 +25°C° 0 mm 3 mps 768 mmHg 34%
    12:00 +27°C° 0 mm 3 mps 768 mmHg 29%
    13:00 +29°C° 0 mm 4 mps 767 mmHg 24%
    14:00 +28°C° 0 mm 4 mps 767 mmHg 27%
    15:00 +27°C° 0 mm 5 mps 766 mmHg 30%
    16:00 +26°C° 0 mm 5 mps 766 mmHg 33%
    17:00 +23°C° 0 mm 5 mps 766 mmHg 42%
    18:00 +20°C° 0 mm 4 mps 766 mmHg 51%
    19:00 +18°C° 0 mm 4 mps 766 mmHg 60%
    20:00 +17°C° 0 mm 3 mps 767 mmHg 64%
    21:00 +17°C° 0 mm 3 mps 767 mmHg 67%
    22:00 +16°C° 0 mm 2 mps 767 mmHg 71%
    23:00 +14°C° 0 mm 3 mps 767 mmHg 72%

    Day after tomorrow, 23 September, Sunday

    Time Temperature Precipitation Wind Pressure Humidity
    00:00 +14°C° 0 mm 4 mps 767 mmHg 72%
    01:00 +13°C° 0 mm 5 mps 767 mmHg 73%
    02:00 +13°C° 0 mm 5 mps 767 mmHg 76%
    03:00 +11°C° 0 mm 6 mps 767 mmHg 79%
    04:00 +11°C° 0 mm 6 mps 767 mmHg 82%
    05:00 +11°C° 0 mm 6 mps 767 mmHg 79%
    06:00 +13°C° 0 mm 6 mps 768 mmHg 77%
    07:00 +13°C° 0 mm 6 mps 768 mmHg 75%
    08:00 +15°C° 0 mm 6 mps 768 mmHg 68%
    09:00 +17°C° 0 mm 6 mps 768 mmHg 61%
    10:00 +20°C° 0 mm 5 mps 768 mmHg 54%
    11:00 +20°C° 0 mm 6 mps 768 mmHg 53%
    12:00 +21°C° 0 mm 6 mps 767 mmHg 51%
    13:00 +21°C° 0 mm 6 mps 767 mmHg 50%
    14:00 +20°C° 0 mm 6 mps 767 mmHg 52%
    15:00 +20°C° 0 mm 7 mps 767 mmHg 54%
    16:00 +18°C° 0 mm 7 mps 767 mmHg 56%
    17:00 +17°C° 0.1 mm 7 mps 767 mmHg 63%
    18:00 +16°C° 0.1 mm 7 mps 768 mmHg 69%
    19:00 +14°C° 0.1 mm 7 mps 769 mmHg 76%
    20:00 +14°C° 0.3 mm 7 mps 769 mmHg 79%
    21:00 +12°C° 0.3 mm 7 mps 770 mmHg 82%
    22:00 +11°C° 0.3 mm 7 mps 770 mmHg 84%
    23:00 +11°C° 0.2 mm 7 mps 770 mmHg 84%

    24 September, Monday

    Time Temperature Precipitation Wind Pressure Humidity
    00:00 +11°C° 0.2 mm 6 mps 770 mmHg 83%
    01:00 +10°C° 0.2 mm 6 mps 770 mmHg 83%
    02:00 +10°C° 0.2 mm 6 mps 770 mmHg 84%
    03:00 +9°C° 0.2 mm 6 mps 770 mmHg 85%
    04:00 +9°C° 0.2 mm 6 mps 769 mmHg 85%
    05:00 +9°C° 0.1 mm 6 mps 770 mmHg 83%
    06:00 +9°C° 0.1 mm 6 mps 770 mmHg 81%
    07:00 +9°C° 0.1 mm 5 mps 771 mmHg 79%
    08:00 +12°C° 0.1 mm 5 mps 771 mmHg 73%
    09:00 +13°C° 0.1 mm 5 mps 771 mmHg 68%
    10:00 +14°C° 0.1 mm 5 mps 771 mmHg 62%
    11:00 +15°C° 0.1 mm 5 mps 771 mmHg 60%
    12:00 +15°C° 0.1 mm 5 mps 771 mmHg 57%
    13:00 +17°C° 0.1 mm 4 mps 770 mmHg 55%
    14:00 +15°C° 0.1 mm 5 mps 770 mmHg 58%
    15:00 +15°C° 0.1 mm 5 mps 770 mmHg 60%
    16:00 +15°C° 0.1 mm 5 mps 770 mmHg 62%
    17:00 +14°C° 0.1 mm 5 mps 770 mmHg 67%
    18:00 +13°C° 0.1 mm 5 mps 771 mmHg 72%
    19:00 +12°C° 0.1 mm 5 mps 771 mmHg 77%
    20:00 +11°C° 0.1 mm 4 mps 771 mmHg 78%
    21:00 +11°C° 0.1 mm 4 mps 771 mmHg 79%
    22:00 +11°C° 0.1 mm 4 mps 771 mmHg 80%
    23:00 +11°C° 0.1 mm 4 mps 771 mmHg 80%

    25 September, Tuesday

    Time Temperature Precipitation Wind Pressure Humidity
    00:00 +11°C° 0.1 mm 4 mps 771 mmHg 79%
    01:00 +10°C° 0.1 mm 3 mps 770 mmHg 79%
    02:00 +10°C° 0 mm 3 mps 770 mmHg 80%
    03:00 +9°C° 0 mm 3 mps 770 mmHg 82%
    04:00 +9°C° 0 mm 3 mps 770 mmHg 83%
    05:00 +9°C° 0 mm 3 mps 770 mmHg 82%
    06:00 +10°C° 0 mm 3 mps 771 mmHg 81%
    07:00 +10°C° 0 mm 3 mps 771 mmHg 80%
    08:00 +12°C° 0.1 mm 3 mps 771 mmHg 70%
    09:00 +14°C° 0.1 mm 3 mps 771 mmHg 60%
    10:00 +16°C° 0.1 mm 3 mps 771 mmHg 51%
    11:00 +17°C° 0 mm 3 mps 770 mmHg 47%
    12:00 +17°C° 0 mm 3 mps 769 mmHg 44%
    13:00 +18°C° 0 mm 3 mps 769 mmHg 41%
    14:00 +18°C° 0 mm 3 mps 768 mmHg 42%
    15:00 +17°C° 0 mm 3 mps 768 mmHg 43%
    16:00 +17°C° 0 mm 3 mps 767 mmHg 43%
    17:00 +15°C° 0 mm 2 mps 768 mmHg 50%
    18:00 +14°C° 0 mm 2 mps 768 mmHg 57%
    19:00 +12°C° 0 mm 2 mps 769 mmHg 64%
    20:00 +11°C° 0 mm 1 mps 769 mmHg 67%
    21:00 +11°C° 0 mm 1 mps 769 mmHg 71%
    22:00 +10°C° 0 mm 1 mps 769 mmHg 74%
    23:00 +10°C° 0 mm 1 mps 769 mmHg 77%

    26 September, Wednesday

    Time Temperature Precipitation Wind Pressure Humidity
    00:00 +9°C° 0 mm 1 mps 768 mmHg 80%
    01:00 +8°C° 0 mm 2 mps 768 mmHg 82%
    02:00 +7°C° 0 mm 2 mps 768 mmHg 83%
    03:00 +7°C° 0 mm 2 mps 768 mmHg 84%
    04:00 +7°C° 0 mm 2 mps 767 mmHg 85%
    05:00 +8°C° 0 mm 2 mps 767 mmHg 80%
    06:00 +9°C° 0 mm 2 mps 768 mmHg 75%
    07:00 +9°C° 0 mm 2 mps 768 mmHg 69%
    08:00 +14°C° 0 mm 2 mps 767 mmHg 57%
    09:00 +17°C° 0 mm 2 mps 767 mmHg 45%
    10:00 +20°C° 0 mm 2 mps 767 mmHg 32%
    11:00 +21°C° 0 mm 2 mps 766 mmHg 29%
    12:00 +24°C° 0 mm 3 mps 766 mmHg 26%
    13:00 +25°C° 0 mm 3 mps 765 mmHg 24%
    14:00 +23°C° 0 mm 4 mps 764 mmHg 27%
    15:00 +23°C° 0 mm 4 mps 764 mmHg 30%
    16:00 +22°C° 0 mm 5 mps 764 mmHg 33%
    17:00 +19°C° 0 mm 5 mps 764 mmHg 42%
    18:00 +16°C° 0 mm 5 mps 764 mmHg 52%
    19:00 +14°C° 0 mm 5 mps 765 mmHg 62%
    20:00 +13°C° 0 mm 4 mps 765 mmHg 67%
    21:00 +13°C° 0 mm 4 mps 765 mmHg 72%
    22:00 +12°C° 0 mm 4 mps 765 mmHg 77%
    23:00 +12°C° 0 mm 4 mps 765 mmHg 79%
    Show more